Wind_Speed
43 43 43 43 43 44 45 45 45 46 45 45 45 46 47 48 48 48 47 46 47 47 46 46 46 45 46 47 45 44 44 44 44 44 44 44 44 44 44 45 45 46 46
43 43 43 43 44 44 44 45 45 46 46 46 46 45 46 47 48 48 48 47 47 47 47 48 49 48 48 48 48 47 46 46 45 45 45 46 46 46 46 46 47 47 48
43 43 43 44 43 43 44 44 45 46 46 47 47 47 46 46 48 49 49 48 48 48 48 49 50 50 49 49 50 50 48 47 47 47 47 47 48 48 49 49 49 50 50
43 44 44 44 44 45 45 45 46 46 47 48 49 48 48 47 48 48 50 49 49 49 50 50 50 51 49 49 49 50 49 49 48 48 48 48 48 49 50 51 51 52 52
43 43 44 44 44 45 45 45 46 47 48 49 50 50 49 49 49 50 51 51 51 50 50 50 50 51 50 50 49 50 50 50 50 49 49 50 51 51 51 52 53 53 54
44 43 44 44 44 44 44 45 45 46 48 49 50 51 51 51 53 53 53 52 52 52 51 51 50 50 50 50 50 50 50 50 51 51 51 51 52 53 53 54 54 55 55
44 44 43 43 43 43 44 43 44 45 46 47 49 51 52 52 53 54 53 53 54 52 51 51 50 50 50 49 50 50 51 52 52 52 52 53 54 54 55 56 56 57 56
44 44 44 43 42 42 43 43 43 44 45 46 46 48 49 50 51 52 52 52 52 51 51 51 50 50 50 51 51 52 52 52 53 54 55 55 56 57 57 57 58 57 57
43 43 44 44 43 43 43 43 43 43 44 45 46 46 47 48 49 49 50 50 51 50 50 50 50 51 51 52 52 52 53 54 55 56 57 57 58 58 58 58 57 58 57
41 42 42 43 43 43 42 41 42 42 42 43 43 44 45 46 47 47 48 49 50 49 49 49 50 51 51 52 53 54 54 55 56 56 57 58 57 57 57 57 58 58 58
40 41 41 41 42 42 41 42 42 42 42 42 42 43 44 45 46 46 47 48 48 48 48 49 50 51 51 52 53 54 55 56 56 57 57 57 57 57 57 57 58 58 59
39 40 40 40 40 41 41 41 42 42 43 43 43 44 45 46 46 47 48 49 49 49 49 49 50 50 51 52 54 54 55 55 56 56 57 57 57 57 57 57 57 58 58
39 40 40 40 40 41 41 42 42 43 43 42 43 44 46 46 47 48 49 49 50 50 49 50 50 51 51 52 53 54 54 55 55 55 56 56 55 55 56 56 56 56 56
38 38 39 40 39 40 41 41 42 41 42 42 43 44 45 46 47 48 49 49 50 50 50 50 51 51 51 52 52 52 53 53 54 54 54 54 54 54 54 54 54 54 53
37 37 38 39 39 39 39 39 40 41 41 42 42 42 43 43 44 44 46 47 48 49 50 50 51 50 51 51 51 51 51 51 52 52 52 52 52 52 52 52 52 52 52
35 36 36 36 37 37 38 39 39 39 39 39 40 40 41 41 41 43 44 46 47 48 48 49 49 48 48 49 49 50 50 50 50 50 50 50 50 50 50 50 50 51 50
34 34 34 34 35 35 36 36 36 36 37 37 38 39 39 40 40 41 42 43 45 46 46 46 47 47 47 48 48 49 49 49 49 49 48 48 49 48 48 48 48 47 46
33 33 34 34 33 33 33 34 34 34 35 36 37 38 38 38 38 39 40 41 42 43 44 45 45 46 46 47 47 47 47 47 47 47 47 47 47 46 46 45 44 44 43
32 33 33 32 32 32 32 32 33 33 34 35 36 36 37 37 37 38 39 39 40 41 42 43 44 44 45 46 46 46 46 46 46 46 46 46 45 44 43 43 42 41 41
30 31 32 32 32 32 32 32 32 33 33 34 34 35 36 36 36 37 38 38 39 39 40 41 42 43 44 45 45 45 45 46 45 45 44 44 43 42 41 41 41 40 40
29 30 31 32 32 32 33 33 32 32 32 33 33 34 34 34 35 36 37 37 38 39 39 40 40 41 41 42 43 43 44 45 44 43 42 41 41 41 40 40 40 40 39
30 30 31 31 32 32 32 32 31 32 32 32 32 32 33 34 34 35 36 36 37 38 38 39 39 39 39 40 41 41 41 41 41 41 40 40 40 40 40 40 39 39 38
30 30 31 31 31 32 32 31 32 32 31 31 31 32 32 33 34 35 36 36 36 37 37 38 38 38 38 39 39 39 38 38 38 38 38 39 39 39 39 39 39 39 39
29 30 30 30 31 32 32 32 32 31 31 31 32 32 33 33 34 35 34 35 35 36 36 36 37 37 38 38 37 37 37 36 36 36 36 36 37 37 37 37 37 38 38
29 29 29 29 30 31 31 31 31 30 31 31 32 32 33 33 34 34 34 34 34 35 35 36 36 36 36 36 35 35 35 35 35 35 35 35 36 36 36 36 36 36 36
27 27 27 28 28 29 29 29 29 29 29 30 31 32 32 32 33 33 33 33 33 34 34 34 34 35 34 34 34 34 34 35 35 34 34 34 34 34 34 35 35 34 34
Wind_Direction
249 249 249 250 250 249 249 249 249 248 247 249 250 249 247 245 246 247 247 248 248 249 250 252 253 254 255 256 256 259 261 263 264 265 268 269 270 273 274 276 278 278 279
248 249 249 249 249 249 249 249 249 248 247 248 249 249 247 245 246 247 248 248 248 249 251 251 252 253 255 255 256 258 261 263 264 265 268 269 270 272 274 275 277 279 279
247 248 248 248 249 249 249 249 249 249 247 247 247 247 247 247 246 247 248 248 249 250 251 252 253 253 254 256 257 258 261 263 265 267 268 270 270 272 274 275 278 279 280
248 248 248 249 249 250 249 249 249 249 248 247 247 247 247 248 248 248 248 250 250 250 251 251 252 253 255 256 257 260 262 264 267 267 268 270 271 274 275 276 278 279 280
247 248 249 250 250 250 250 250 249 249 248 248 247 247 248 248 248 249 249 251 250 250 251 251 252 253 255 256 258 260 263 265 267 268 269 271 273 275 277 278 278 279 279
248 249 250 251 250 249 249 250 250 249 249 249 249 248 248 248 249 250 250 252 251 252 252 251 252 254 255 257 259 261 263 265 267 269 271 273 275 277 278 279 280 280 280
249 250 251 251 250 250 250 251 251 250 249 250 250 249 249 249 249 249 250 252 252 253 252 252 253 255 256 257 259 261 263 266 269 271 273 275 276 278 279 280 281 281 282
248 249 250 251 251 251 250 249 250 251 251 252 252 251 250 249 249 249 249 251 252 253 252 253 254 255 256 258 260 263 265 268 270 272 274 276 277 279 279 280 280 281 282
247 248 250 250 251 251 250 250 251 251 251 251 250 250 250 249 249 249 249 250 251 252 253 254 255 257 259 261 263 265 267 270 272 274 275 277 278 279 280 280 281 282 282
246 247 249 250 250 251 251 251 252 252 252 252 251 251 251 250 249 249 249 251 252 254 254 256 258 259 261 263 265 266 268 271 272 274 276 277 278 278 279 279 280 282 283
245 246 248 249 250 251 251 252 253 253 254 254 254 253 252 252 251 251 252 252 254 255 256 257 259 261 262 264 266 268 269 271 272 274 275 276 277 278 279 280 280 282 283
245 246 248 250 251 251 253 254 255 256 257 256 255 254 254 254 253 252 252 253 255 257 258 259 261 263 264 266 268 269 270 272 273 274 275 276 277 278 279 280 281 282 283
246 247 248 249 251 253 254 255 256 258 257 256 256 256 255 255 254 253 252 254 256 258 260 261 263 265 267 268 269 270 271 272 273 274 275 277 278 279 280 280 281 282 283
248 248 249 250 252 254 255 256 257 257 257 257 257 257 256 255 255 254 254 256 258 260 261 263 265 266 268 269 270 271 273 274 275 275 276 277 278 279 280 281 281 282 282
248 248 250 251 253 255 257 258 258 257 257 257 257 257 256 255 255 255 256 257 259 261 262 264 265 266 268 269 271 273 274 275 276 277 277 279 280 280 281 282 282 283 283
248 248 249 251 253 255 256 258 257 257 257 257 256 256 256 256 257 257 257 259 260 262 263 264 265 267 269 270 271 273 274 276 277 278 279 280 281 282 282 282 283 284 284
248 247 249 251 253 254 255 256 256 255 256 256 257 257 258 259 259 259 260 261 262 263 263 264 265 267 269 271 272 274 275 276 277 279 280 282 283 283 282 283 283 283 283
249 248 249 250 252 253 254 254 255 256 256 257 258 259 260 261 261 262 262 262 263 263 264 265 267 268 270 271 273 275 275 277 278 279 281 282 282 282 281 282 282 282 282
249 249 250 251 253 253 254 255 257 257 258 259 260 260 260 262 262 263 263 264 264 265 266 267 268 270 271 272 273 275 276 277 279 280 281 281 281 280 280 280 280 281 282
249 250 251 253 253 254 256 257 259 260 260 260 261 261 262 262 263 263 264 265 266 267 268 269 269 270 272 273 274 275 275 277 278 279 279 279 279 279 279 279 280 282 283
249 250 252 254 255 256 257 259 260 263 263 262 261 261 261 262 264 265 266 268 269 271 271 271 271 272 273 274 275 276 276 276 277 278 278 278 278 278 279 280 281 281 283
252 252 254 255 255 257 258 259 261 262 262 262 260 260 261 263 266 268 269 270 271 272 273 273 274 275 275 276 276 277 277 277 276 276 276 277 277 278 278 279 279 280 281
253 253 253 255 257 258 259 260 261 261 262 261 261 261 263 265 268 269 270 271 272 272 273 274 275 276 276 276 276 276 277 277 276 276 277 277 277 278 278 278 279 280 281
255 256 256 257 259 259 260 261 261 261 261 261 261 263 265 267 269 270 271 272 272 273 274 275 276 277 277 276 276 275 275 275 275 276 277 277 277 277 277 278 279 280 282
258 258 259 259 259 259 259 260 260 261 262 262 262 264 266 268 270 270 272 272 273 274 275 275 275 276 276 275 275 275 274 274 275 276 277 277 276 276 277 278 279 280 281
258 258 258 260 260 259 259 260 261 261 262 263 263 265 267 268 269 270 272 273 274 275 276 276 277 277 276 275 275 275 274 274 274 275 276 276 277 277 277 278 279 280 279
Height
5637 5640 5643 5646 5649 5652 5655 5659 5662 5666 5670 5673 5677 5680 5683 5687 5691 5696 5699 5703 5707 5710 5713 5716 5718 5720 5723 5725 5727 5729 5731 5732 5734 5736 5736 5736 5736 5736 5735 5735 5734 5734 5733
5626 5629 5632 5635 5638 5641 5644 5648 5652 5655 5659 5663 5666 5669 5673 5676 5681 5685 5688 5692 5695 5698 5701 5705 5708 5710 5712 5715 5717 5718 5720 5721 5723 5724 5725 5725 5725 5724 5724 5724 5723 5722 5721
5615 5618 5621 5625 5628 5631 5634 5637 5640 5644 5648 5652 5655 5659 5663 5666 5670 5674 5678 5681 5684 5687 5690 5693 5696 5699 5701 5703 5705 5707 5709 5710 5711 5712 5713 5713 5713 5713 5713 5712 5711 5710 5708
5604 5607 5610 5614 5617 5620 5623 5626 5629 5633 5637 5640 5644 5648 5651 5655 5659 5663 5667 5670 5673 5675 5678 5681 5684 5687 5690 5692 5694 5696 5697 5698 5699 5700 5701 5701 5700 5700 5700 5699 5698 5697 5695
5593 5596 5599 5602 5605 5608 5611 5615 5618 5621 5625 5629 5632 5636 5640 5644 5648 5651 5655 5658 5661 5664 5666 5669 5672 5675 5678 5680 5682 5684 5685 5686 5687 5687 5688 5688 5688 5687 5686 5685 5684 5683 5681
5582 5585 5588 5591 5593 5596 5600 5603 5606 5610 5613 5617 5620 5624 5628 5632 5636 5639 5643 5647 5649 5652 5655 5658 5661 5663 5666 5668 5670 5671 5672 5673 5674 5675 5675 5675 5674 5673 5671 5670 5668 5668 5667
5571 5574 5577 5579 5582 5585 5588 5591 5595 5598 5601 5604 5608 5611 5615 5619 5623 5627 5631 5634 5638 5641 5643 5646 5648 5651 5653 5655 5657 5658 5659 5660 5661 5661 5661 5660 5660 5658 5656 5655 5653 5651 5650
5560 5563 5566 5568 5571 5574 5576 5580 5583 5586 5589 5592 5595 5598 5602 5606 5610 5614 5618 5621 5625 5628 5631 5634 5636 5638 5640 5642 5644 5645 5646 5646 5647 5647 5646 5645 5644 5642 5640 5639 5637 5636 5634
5548 5552 5555 5557 5560 5562 5565 5568 5571 5574 5577 5580 5583 5586 5589 5593 5597 5601 5605 5608 5612 5615 5618 5620 5622 5625 5627 5628 5630 5631 5632 5632 5631 5631 5630 5629 5628 5626 5624 5622 5621 5619 5618
5538 5541 5543 5546 5549 5552 5554 5557 5560 5563 5566 5568 5571 5574 5578 5581 5584 5588 5592 5596 5600 5603 5605 5607 5609 5611 5612 5613 5614 5616 5617 5617 5617 5616 5615 5613 5612 5610 5608 5606 5604 5602 5601
5527 5530 5533 5536 5538 5541 5543 5546 5549 5551 5554 5557 5560 5563 5566 5569 5572 5575 5579 5582 5586 5589 5592 5594 5596 5597 5598 5599 5599 5600 5601 5601 5601 5600 5599 5598 5596 5594 5592 5590 5587 5585 5584
5516 5520 5522 5525 5528 5530 5532 5535 5537 5539 5542 5545 5548 5551 5553 5556 5559 5562 5566 5569 5572 5575 5578 5580 5582 5583 5584 5585 5585 5585 5585 5585 5584 5584 5583 5582 5581 5579 5576 5574 5571 5569 5566
5506 5509 5512 5514 5517 5519 5522 5524 5526 5528 5530 5533 5535 5538 5541 5543 5546 5549 5553 5556 5559 5562 5564 5566 5568 5569 5569 5570 5570 5569 5569 5569 5568 5568 5567 5566 5564 5562 5560 5558 5555 5553 5550
5496 5499 5502 5504 5507 5509 5511 5513 5515 5517 5519 5521 5523 5525 5528 5531 5533 5536 5539 5542 5545 5548 5550 5552 5553 5554 5554 5555 5555 5554 5554 5553 5552 5552 5551 5550 5548 5546 5544 5542 5540 5537 5535
5486 5488 5491 5494 5496 5498 5500 5502 5504 5506 5507 5509 5511 5513 5516 5519 5521 5523 5526 5529 5532 5534 5535 5537 5538 5539 5540 5540 5540 5540 5539 5538 5538 5537 5536 5534 5533 5531 5529 5526 5524 5522 5520
5475 5478 5481 5484 5486 5488 5490 5492 5493 5495 5496 5498 5500 5502 5504 5507 5509 5511 5513 5516 5518 5520 5521 5523 5524 5525 5526 5526 5526 5526 5525 5524 5523 5522 5521 5519 5518 5516 5514 5512 5509 5507 5505
5466 5469 5471 5474 5476 5478 5479 5481 5482 5484 5486 5488 5489 5491 5493 5495 5497 5499 5501 5503 5504 5506 5508 5509 5511 5511 5512 5512 5512 5512 5511 5510 5509 5508 5507 5505 5503 5502 5500 5498 5496 5494 5492
5457 5460 5462 5465 5467 5468 5470 5471 5473 5475 5476 5477 5479 5481 5483 5485 5486 5488 5489 5491 5492 5493 5495 5496 5497 5498 5498 5498 5498 5498 5497 5496 5495 5494 5493 5491 5489 5488 5486 5485 5482 5480 5479
5449 5451 5453 5455 5457 5459 5461 5462 5464 5465 5466 5468 5469 5471 5472 5474 5475 5477 5478 5479 5481 5482 5483 5483 5484 5484 5485 5485 5484 5484 5484 5483 5482 5481 5480 5478 5476 5475 5473 5472 5470 5468 5466
5440 5443 5445 5447 5449 5450 5452 5453 5455 5456 5457 5458 5459 5461 5462 5463 5465 5466 5467 5468 5469 5470 5471 5471 5471 5471 5471 5471 5470 5470 5470 5469 5468 5468 5466 5465 5463 5462 5461 5459 5458 5456 5454
5432 5434 5436 5438 5439 5441 5442 5444 5445 5446 5447 5448 5449 5451 5452 5453 5455 5456 5457 5457 5458 5458 5459 5459 5458 5458 5458 5457 5457 5456 5456 5456 5455 5454 5453 5452 5451 5450 5449 5448 5446 5445 5443
5424 5425 5427 5428 5430 5431 5432 5434 5435 5436 5438 5439 5440 5441 5442 5443 5445 5446 5446 5447 5447 5446 5446 5446 5446 5446 5445 5445 5444 5444 5443 5442 5442 5441 5440 5439 5439 5438 5437 5436 5435 5433 5432
5415 5417 5418 5419 5420 5422 5423 5424 5425 5427 5428 5429 5431 5432 5433 5433 5434 5435 5436 5436 5436 5435 5435 5435 5434 5434 5433 5432 5432 5431 5431 5430 5429 5429 5428 5427 5427 5426 5425 5425 5423 5422 5421
5407 5408 5409 5410 5411 5412 5414 5415 5416 5417 5418 5419 5421 5422 5423 5424 5424 5425 5425 5425 5425 5424 5424 5423 5423 5422 5421 5421 5420 5419 5419 5418 5418 5417 5416 5416 5415 5415 5414 5413 5412 5411 5409
5399 5400 5401 5402 5402 5403 5404 5405 5406 5407 5409 5410 5411 5412 5413 5413 5414 5414 5414 5414 5414 5413 5413 5412 5411 5411 5410 5409 5409 5408 5407 5407 5406 5406 5405 5404 5404 5403 5402 5402 5401 5400 5399
5390 5391 5392 5393 5394 5395 5396 5396 5397 5398 5399 5400 5401 5402 5403 5403 5403 5404 5404 5403 5403 5403 5402 5401 5400 5400 5399 5398 5397 5397 5396 5396 5395 5395 5394 5394 5393 5392 5391 5390 5390 5389 5388